This demonstration page uses our WeatherBlox Daily Observations layout. Learn more.

Left ArrowRight Arrow

Hourly Observations for April 18, 2020

Temp ( °F °C ) Dew Point ( °F °C ) Humidity (%) Winds ( mph kmh ) Pressure ( in mb ) Visibility ( mi km ) Precip ( " mm )
12:52 am 00:52 Clear 41 5 27 -2.8 57 57 SSW 9 15 30.03 1017 10 16 0.00 0.00
1:52 am 01:52 Clear 41 5 28 -2.2 60 60 S 13 20 30.01 1016 10 16 0.00 0.00
2:52 am 02:52 Clear 41 5 28 -2.2 60 60 SSW 13 20 29.98 1015 10 16 0.00 0.00
3:52 am 03:52 Clear 39 3.9 29 -1.7 67 67 S 14 22 29.97 1015 10 16 0.00 0.00
4:52 am 04:52 Clear 38 3.3 29 -1.7 70 70 S 10 17 29.96 1015 10 16 0.00 0.00
5:52 am 05:52 Clear 38 3.3 29 -1.7 70 70 S 13 20 29.95 1014 10 16 0.00 0.00
6:52 am 06:52 Sunny 36 2.2 29 -1.7 76 76 S 12 19 29.94 1014 10 16 0.00 0.00
7:52 am 07:52 Sunny 38 3.3 31 -0.6 76 76 SSE 10 17 29.92 1013 10 16 0.00 0.00
8:52 am 08:52 Sunny 45 7.2 33 0.6 63 63 S 12 19 29.90 1013 10 16 0.00 0.00
9:52 am 09:52 Sunny 50 10 33 0.6 52 52 SSW 14 22 29.87 1012 10 16 0.00 0.00
10:52 am 10:52 Sunny 55 12.8 35 1.7 47 47 S 17 28 29.85 1011 10 16 0.00 0.00
11:52 am 11:52 Sunny 60 15.6 38 3.3 44 44 SSW 17 28 29.82 1010 10 16 0.00 0.00
12:52 pm 12:52 Sunny 64 17.8 39 3.9 40 40 SSW 17 28 29.78 1008 10 16 0.00 0.00
1:52 pm 13:52 Sunny 67 19.4 40 4.4 37 37 WSW 21 33 29.75 1008 10 16 0.00 0.00
2:52 pm 14:52 Sunny 70 21.1 40 4.4 34 34 WSW 22 35 29.73 1007 10 16 0.00 0.00
3:52 pm 15:52 Mostly Sunny 73 22.8 39 3.9 29 29 SSW 20 31 29.69 1005 10 16 0.00 0.00
4:52 pm 16:52 Partly Cloudy 73 22.8 34 1.1 24 24 SW 21 33 29.67 1005 10 16 0.00 0.00
5:52 pm 17:52 Partly Cloudy 73 22.8 32 0 22 22 SW 22 35 29.66 1005 10 16 0.00 0.00
6:52 pm 18:52 Mostly Cloudy 70 21.1 31 -0.6 23 23 SSW 15 24 29.67 1005 10 16 0.00 0.00
7:52 pm 19:52 Partly Cloudy 66 18.9 36 2.2 33 33 S 13 20 29.67 1005 10 16 0.00 0.00
8:52 pm 20:52 Mostly Cloudy 62 16.7 37 2.8 40 40 S 12 19 29.69 1005 10 16 0.00 0.00
9:52 pm 21:52 Mostly Cloudy 60 15.6 38 3.3 44 44 NNW 13 20 29.75 1008 10 16 0.00 0.00
10:52 pm 22:52 Mostly Clear 60 15.6 37 2.8 42 42 SSW 7 11 29.75 1008 10 16 0.00 0.00
11:52 pm 23:52 Partly Cloudy 53 11.7 38 3.3 57 57 SSE 6 9 29.77 1008 10 16 0.00 0.00

Powered by AerisWeather